Retour au catalogue

SL-6 R/B(2)

ActifHEO
NORAD 16106·ROCKET BODY·🇷🇺 Russia

Lancé Sep 30, 1985 depuis Plesetsk Cosmodrome

Loading…

Prochains Passages (prochaines 24 heures)

TLE

FraisSource: Space-Track

Époque: Sep 13, 2026, 12:54 UTC

1 16106U 85088D   26256.53761610 -.00000616  00000-0  00000-0 0  9997
2 16106  65.0326 124.3335 6849576  29.4773 356.0737  2.04649986305890

Suivez SL-6 R/B(2) en temps réel avec AllMySat

Download on the App Store